Location: ??????????
(48.5701°N, 37.7703°E)
Time: 19:07:56
(UTC+00:00)

Okean 2 - Pass Details

Date: 14 July 2020
Orbit: 559 x 578 km, 82.5° (Epoch: 11 August)

Event Time Altitude Azimuth Distance (km) Brightness Sun altitude
Rises 00:55:33 0° 349° (N) 2,767 7.4 -6.8°
Reaches altitude 10° 00:57:44 10° 348° (NNW) 1,863 6.5 -6.5°
Maximum altitude 01:01:50 79° 262° (W) 577 3.3 -6.0°
Drops below altitude 10° 01:05:54 10° 176° (S) 1,843 5.6 -5.5°
Sets 01:08:03 0° 175° (S) 2,733 6.5 -5.2°
